STARLINK-37923

Last updated on Sun Aug 09 2026 00:02:04 GMT+0000 (Coordinated Universal Time)

1 69949U 26157G 26220.17719911 .00018146 00000+0 33330-3 0 9990 2 69949 53.1592 177.5486 0001033 83.3902 276.7225 15.49330928 4700
UTC large
Height (km)
Speed (km/s)
/
Latitude / Longitude
Inclination (degrees)
Orbital Period (minutes)
Azimuth
Elevation
Range (km)
Doppler Factor

Next 0 passes for location: London (51.5072 / 0.1276)

No passes found over London.
STARLINK-37923